Location: Nairn
(57.5833°N, 3.8667°W)
Time: 05:12:47
(UTC+00:00)

Explorer 7 - Pass Details

Date: 05 December 2020
Orbit: 484 x 678 km, 50.3° (Epoch: 17 January)

Event Time Altitude Azimuth Distance (km) Brightness Sun altitude
Exits shadow 05:09:44 10° 171° (S) 1,816 9.5 -26.3°
Drops below altitude 10° 05:09:47 10° 171° (S) 1,825 9.6 -26.3°
Sets 05:12:35 0° 150° (SSE) 2,674 10.7 -25.9°
